Location: Caixon
(43.4106°N, 0.0273°E)
Time: 15:38:27
(UTC+00:00)

Cosmos 2219 Rocket - Pass Details

Date: 16 October 2021
Orbit: 827 x 848 km, 71.0° (Epoch: 28 November)

Event Time Altitude Azimuth Distance (km) Brightness Sun altitude
Rises 05:28:04 0° 344° (NNW) 3,395 5.1 -9.3°
Reaches altitude 10° 05:31:03 10° 359° (N) 2,461 4.6 -8.8°
Maximum altitude 05:35:27 23° 50° (NE) 1,726 4.5 -8.0°
Drops below altitude 10° 05:39:52 10° 102° (ESE) 2,462 6.4 -7.2°
Sets 05:42:50 0° 116° (ESE) 3,396 6.9 -6.6°
